Regional Weather Roundup
Issued by NWS

Home | Current Version | Previous Version | Text Only | Print | Product List | Glossary On
Versions: 1 2 3 4 5 6 7 8 9 10 11 12 13 14 15 16 17 18 19 20 21 22 23 24 25 26 27 28 29 30 31 32 33 34 35 36 37 38 39 40 41 42 43 44 45 46 47 48 49 50
861
ASUS44 KEWX 101311
RWRTX
SOUTH TEXAS REGIONAL WEATHER ROUNDUP
NATIONAL WEATHER SERVICE AUSTIN/SAN ANTONIO TX
700 AM CST WED FEB 10 2016

NOTE: "FAIR" INDICATED FEW OR NO CLOUDS BELOW 12,000 FEET WITH NO
SIGNIFICANT WEATHER AND/OR OBSTRUCTIONS TO VISIBILITY.

* - THESE STATIONS ARE NOT NWS OR FAA STATIONS...AND ARE NOT SUBJECT
    TO NWS AND FAA QUALITY CONTROL.

TXZ171-172-183>190-101400-
TEXAS HILL COUNTRY AND EDWARDS PLATEAU

CITY           SKY/WX    TMP DP  RH WIND       PRES   REMARKS
JUNCTION       CLEAR     28  22  78 W3        30.36R
*LLANO         CLEAR     32  28  86 CALM      30.40R
BURNET         CLEAR     41  24  51 CALM      30.37R
*HORSESHOE BAY CLEAR     33  31  92 S3        30.36S
*KERRVILLE     CLEAR     31  28  88 CALM      30.36R
*FREDERICKSBRG CLEAR     31  25  77 CALM      30.35R
*ROCKSPRINGS   CLEAR     52  23  32 CALM      30.35R
*BOERNE STAGE  CLEAR     32  28  86 CALM      30.37R
*CASTROVILLE   CLEAR     37  28  68 NW5       30.37R WCI  34
HONDO          CLEAR     35  25  66 N7        30.37R WCI  29
*UVALDE        CLEAR     36  28  72 NE5       30.34R WCI  32
DEL RIO        CLEAR     36  26  67 W3        30.32R
LAUGHLIN AFB   CLEAR     37  25  62 NE6       30.32R WCI  32
CARRIZO SPRGS  CLEAR     36  27  69 CALM      30.33R
*EAGLE PASS    SUNNY     36  27  69 NE5       30.33R WCI  32
$$

TXZ173-191>194-202-209-217>225-228-101400-
CENTRAL AND SOUTH CENTRAL TEXAS

CITY           SKY/WX    TMP DP  RH WIND       PRES   REMARKS
GEORGETOWN     CLEAR     32  25  74 CALM      30.37R
AUSTIN/BERGSTM CLEAR     33  30  88 CALM      30.37R
AUSTIN/MABRY   CLEAR     41  30  65 CALM      30.38R
*AUSTIN/EXEC   CLEAR     39  28  65 N6        30.38R WCI  35
*LAGO VISTA    CLEAR     42  28  56 E6        30.36R WCI  38
SAN MARCOS     CLEAR     37  28  70 N6        30.38R WCI  33
NEW BRAUNFELS  CLEAR     43  29  57 NE7       30.35R WCI  39
RANDOLPH AFB   CLEAR     40  30  68 N7        30.35R WCI  35
PT SAN ANTONIO CLEAR     42  30  62 NE3       30.33R
SAN ANTONIO    CLEAR     46  29  51 N3        30.36R
STINSON FIELD  CLEAR     48  30  49 NE6       30.33R WCI  45
*PLEASANTON    CLEAR     38  30  73 CALM      30.35R
*LA GRANGE     CLEAR     36  33  87 N3        30.35R
*GIDDINGS      CLEAR     36  31  82 CALM      30.41R
*GONZALES      CLEAR     40  32  72 N5        30.36R WCI  37
$$

TXZ163>164-176>182-195>201-210>213-226-227-235-101400-
SOUTHEAST TEXAS

CITY           SKY/WX    TMP DP  RH WIND       PRES   REMARKS
COLLEGE STN    CLEAR     38  28  67 CALM      30.38R
*BRYAN         CLEAR     35  30  83 CALM      30.39R
*CALDWELL      CLEAR     36  30  80 CALM      30.40S
*CROCKETT      CLEAR     32  28  86 CALM      30.40R
*BRENHAM       CLEAR     37  32  82 CALM      30.38R
HUNTSVILLE     CLEAR     36  27  69 CALM      30.37R
CONROE         CLEAR     31  28  89 CALM      30.38R
HOUSTON BUSH   CLEAR     39  31  72 CALM      30.38R
HOUSTON HOBBY  PTCLDY    43  30  60 CALM      30.38R
*HOUSTON SW AP PTCLDY    39  32  75 CALM      30.39R
PEARLAND       PTCLDY    38  33  82 NE6       30.40R WCI  33
HOUSTON HOOKS  PTCLDY    36  32  85 CALM      30.38R
ELLINGTON FLD  CLEAR     48  30  49 CALM      30.40R
SUGAR LAND     PTCLDY    41  32  70 NE3       30.38R
*HOUSTON EXEC  PTCLDY    39  32  75 E6        30.39R WCI  35
*CLEVELAND MUN PTCLDY    32  32 100 CALM      30.39R
*WHARTON       CLEAR     38  30  73 E3        30.38R
*COLUMBUS      FAIR      42  31  64 E3        30.36R
*EAGLE LAKE    SUNNY     38  32  80 NE3       30.37R
$$

TXZ214>216-236>238-101400-
THE UPPER TEXAS COAST

CITY           SKY/WX    TMP DP  RH WIND       PRES   REMARKS
*ORANGE        CLEAR     34  30  85 CALM      30.39R
PORT ARTHUR    CLEAR     39  31  72 NW5       30.37R WCI  36
GALVESTON      CLEAR     46  34  62 NE7       30.40R WCI  42
ANGLETON       CLEAR     41  33  73 NE7       30.38R WCI  36
*BAY CITY      CLEAR     44  34  69 E6        30.37R WCI  40
PALACIOS       CLEAR     44  39  82 E8        30.37R WCI  39
$$

TXZ229>234-239>247-101400-
TEXAS COASTAL BEND AND RIO GRANDE PLAINS

CITY           SKY/WX    TMP DP  RH WIND       PRES   REMARKS
VICTORIA       CLEAR     38  34  85 NE6       30.35R WCI  33
*BEEVILLE      CLEAR     42  34  75 N6        30.34R WCI  38
ROCKPORT       CLEAR     45  38  76 NE5       30.36R WCI  43
*PORT ARANSAS  CLEAR     50  44  80 CALM      30.35R
*PORT LAVACA   CLEAR     39  34  83 CALM      30.36R
*INGLESIDE     CLEAR     42  37  84 NE5       30.36R WCI  39
CORPUS CHRISTI CLEAR     40  30  67 SW5       30.34R WCI  37
CORPUS NAS     CLEAR     47  39  74 SW8       30.34R WCI  43
*ROBSTOWN      CLEAR     40  32  71 SW3       30.35R
ALICE            N/A     40  32  73 SW3       30.33R
KINGSVILLE NAS CLEAR     42  36  79 SW7       30.34R WCI  38
COTULLA        CLEAR     38  26  62 CALM      30.34R
*FAITH RANCH   CLEAR     41  25  52 N7        30.34R WCI  36
LAREDO         CLEAR     43  34  70 E3        30.35R
$$

TXZ248>255-101400-
DEEP SOUTH TEXAS

CITY           SKY/WX    TMP DP  RH WIND       PRES   REMARKS
BROWNSVILLE    PTCLDY    46  40  79 SW3       30.36R
PORT ISABEL    PTCLDY    48  40  73 SW8       30.35R WCI  44
*SOUTH PADRE     N/A     54  46  76 MISG      30.36R
HARLINGEN      CLEAR     48  36  63 S8        30.35R WCI  44
*HEBBRONVILLE  NOT AVBL
MCALLEN        CLEAR     44  37  76 CALM      30.36R
*WESLACO       CLEAR     48  33  56 CALM      30.35R
FALFURRIAS     CLEAR     42  34  74 CALM      30.34R
EDINBURG       PTCLDY    40  34  78 CALM      30.36R
*ZAPATA        PTCLDY    33  25  71 CALM      30.34R
$$

TXZ213>215-236>238-242>244-246-247-251-254-255-101400-
CMAN STATIONS

STATION/POSITION TIME  TEMP    WIND        PRES    WAVE
                       AIR SEA DIR/SP/G            HT/PER
                 (UTC) (F)     (DEG/KT/KT) (MB)    (FT/S)
SABINE PASS      1200   48 54   10/  7/  9 1029.2
SEA RIM ST PARK  1300   43      30/  8/  9 1029.0
NORTH JETTY/GLS  1200   51 59   60/ 11/ 13   N/A
EAGLE POINT      1200   52 51   40/  5/ 10 1028.3
MORGANS POINT    1200   48 51   30/  4/  5 1028.1
MISSION/ARANSAS  1200   47                 1028.0
PORT O`CONNOR    1200          210/  1/  2   N/A
PORT ARANSAS     1200   54 59  230/  7/  8 1027.5
MALAQUITE BEACH  1200   50 59  240/  9/  9 1027.0
BAFFIN BAY       1200   54 57  240/ 10/ 12 1027.1
PORT ISABEL      1200   50 60  230/  4/  5 1027.2
$$

GMZ080-GMZ150>470-101400-
OFFSHORE BUOY REPORTS

STATION/POSITION TIME  TEMP    WIND        PRES    WAVE
                       AIR SEA DIR/SP/G            HT/PER
                 (UTC) (F)     (DEG/KT/KT) (MB)    (FT/S)
20 E GALVESTON   1250   53 56   10/ 12/ 14 1028.6    2/ 3
90 E PT ARANSAS  1250   62 68  340/ 12/ 14 1028.0    2/ 3
35 NE PT MANSFLD 1250   63 66  240/ 14/ 16 1027.0    2/ 3
200 E PT ISABEL  1250                        N/A     3/ 6
$$




USA.gov is the U.S. government's official web portal to all federal, state and local government web resources and services.